• In Austria
  • List of Countries
  • For 7 days
  • Water Temperature
  • Satellite Maps
  • Weather Map
  • News
  • Weather Widgets
  • user-avatar
    Login

    Hourly Weather Kenmare

    Today, 17 October, Wednesday

    Time Temperature Precipitation Wind Pressure Humidity
    00:00 +8°C° 0.1 mm 4 mps 752 mmHg 95%
    01:00 +8°C° 0.1 mm 4 mps 753 mmHg 95%
    02:00 +9°C° 0.1 mm 3 mps 753 mmHg 95%
    03:00 +8°C° 0 mm 4 mps 753 mmHg 95%
    04:00 +7°C° 0 mm 4 mps 754 mmHg 94%
    05:00 +7°C° 0 mm 4 mps 755 mmHg 93%
    06:00 +8°C° 0 mm 5 mps 755 mmHg 90%
    07:00 +9°C° 0 mm 5 mps 756 mmHg 86%
    08:00 +9°C° 0 mm 5 mps 756 mmHg 82%
    09:00 +10°C° 0 mm 5 mps 757 mmHg 76%
    10:00 +10°C° 0 mm 5 mps 758 mmHg 71%
    11:00 +12°C° 0 mm 5 mps 758 mmHg 65%
    12:00 +12°C° 0 mm 5 mps 759 mmHg 65%
    13:00 +12°C° 0 mm 5 mps 759 mmHg 65%
    14:00 +12°C° 0 mm 5 mps 759 mmHg 65%
    15:00 +11°C° 0 mm 4 mps 760 mmHg 70%
    16:00 +10°C° 0 mm 4 mps 760 mmHg 76%
    17:00 +7°C° 0 mm 4 mps 761 mmHg 82%
    18:00 +8°C° 0 mm 3 mps 761 mmHg 83%
    19:00 +7°C° 0 mm 3 mps 762 mmHg 85%
    20:00 +7°C° 0 mm 3 mps 762 mmHg 86%
    21:00 +7°C° 0 mm 2 mps 763 mmHg 87%
    22:00 +6°C° 0 mm 2 mps 763 mmHg 87%
    23:00 +6°C° 0 mm 2 mps 763 mmHg 88%

    Tomorrow, 18 October, Thursday

    Time Temperature Precipitation Wind Pressure Humidity
    00:00 +6°C° 0 mm 2 mps 763 mmHg 88%
    01:00 +6°C° 0 mm 2 mps 763 mmHg 89%
    02:00 +6°C° 0 mm 1 mps 763 mmHg 89%
    03:00 +5°C° 0 mm 2 mps 762 mmHg 89%
    04:00 +5°C° 0 mm 2 mps 762 mmHg 89%
    05:00 +5°C° 0 mm 2 mps 762 mmHg 88%
    06:00 +6°C° 0 mm 2 mps 762 mmHg 85%
    07:00 +6°C° 0 mm 2 mps 762 mmHg 82%
    08:00 +7°C° 0 mm 2 mps 763 mmHg 79%
    09:00 +9°C° 0 mm 2 mps 762 mmHg 73%
    10:00 +10°C° 0 mm 3 mps 762 mmHg 67%
    11:00 +12°C° 0 mm 3 mps 762 mmHg 62%
    12:00 +12°C° 0 mm 3 mps 761 mmHg 63%
    13:00 +12°C° 0 mm 3 mps 761 mmHg 63%
    14:00 +12°C° 0 mm 3 mps 761 mmHg 64%
    15:00 +11°C° 0 mm 3 mps 760 mmHg 72%
    16:00 +9°C° 0 mm 3 mps 760 mmHg 80%
    17:00 +8°C° 0 mm 3 mps 760 mmHg 87%
    18:00 +7°C° 0 mm 3 mps 760 mmHg 89%
    19:00 +6°C° 0 mm 4 mps 760 mmHg 91%
    20:00 +6°C° 0 mm 4 mps 760 mmHg 93%
    21:00 +6°C° 0 mm 4 mps 760 mmHg 92%
    22:00 +6°C° 0 mm 4 mps 760 mmHg 92%
    23:00 +7°C° 0 mm 4 mps 760 mmHg 91%

    Day after tomorrow, 19 October, Friday

    Time Temperature Precipitation Wind Pressure Humidity
    00:00 +7°C° 0 mm 4 mps 759 mmHg 91%
    01:00 +7°C° 0 mm 4 mps 759 mmHg 91%
    02:00 +7°C° 0 mm 4 mps 759 mmHg 92%
    03:00 +7°C° 0 mm 4 mps 759 mmHg 92%
    04:00 +7°C° 0 mm 4 mps 759 mmHg 92%
    05:00 +8°C° 0 mm 4 mps 759 mmHg 92%
    06:00 +8°C° 0 mm 4 mps 759 mmHg 91%
    07:00 +10°C° 0 mm 4 mps 759 mmHg 89%
    08:00 +11°C° 0 mm 4 mps 759 mmHg 88%
    09:00 +12°C° 0 mm 4 mps 760 mmHg 85%
    10:00 +12°C° 0 mm 4 mps 760 mmHg 82%
    11:00 +13°C° 0 mm 4 mps 760 mmHg 79%
    12:00 +13°C° 0 mm 4 mps 760 mmHg 79%
    13:00 +13°C° 0 mm 4 mps 760 mmHg 79%
    14:00 +14°C° 0 mm 4 mps 760 mmHg 80%
    15:00 +12°C° 0 mm 4 mps 760 mmHg 84%
    16:00 +11°C° 0 mm 4 mps 760 mmHg 88%
    17:00 +10°C° 0 mm 4 mps 760 mmHg 93%
    18:00 +10°C° 0 mm 4 mps 760 mmHg 93%
    19:00 +9°C° 0 mm 5 mps 760 mmHg 93%
    20:00 +9°C° 0 mm 5 mps 761 mmHg 93%
    21:00 +10°C° 0.1 mm 5 mps 761 mmHg 93%
    22:00 +10°C° 0.1 mm 5 mps 761 mmHg 93%
    23:00 +10°C° 0.1 mm 5 mps 761 mmHg 93%

    20 October, Saturday

    Time Temperature Precipitation Wind Pressure Humidity
    00:00 +10°C° 0 mm 5 mps 761 mmHg 93%
    01:00 +12°C° 0 mm 5 mps 761 mmHg 94%
    02:00 +12°C° 0 mm 5 mps 761 mmHg 94%
    03:00 +12°C° 0.1 mm 5 mps 761 mmHg 95%
    04:00 +12°C° 0.1 mm 4 mps 761 mmHg 95%
    05:00 +12°C° 0.1 mm 4 mps 761 mmHg 96%
    06:00 +12°C° 0 mm 4 mps 761 mmHg 96%
    07:00 +13°C° 0 mm 4 mps 762 mmHg 96%
    08:00 +13°C° 0 mm 4 mps 762 mmHg 95%
    09:00 +13°C° 0 mm 4 mps 762 mmHg 95%
    10:00 +14°C° 0 mm 4 mps 762 mmHg 95%
    11:00 +14°C° 0 mm 3 mps 763 mmHg 95%
    12:00 +15°C° 0 mm 4 mps 762 mmHg 94%
    13:00 +15°C° 0 mm 4 mps 762 mmHg 94%
    14:00 +17°C° 0 mm 4 mps 762 mmHg 93%
    15:00 +15°C° 0 mm 4 mps 762 mmHg 94%
    16:00 +15°C° 0 mm 4 mps 762 mmHg 96%
    17:00 +14°C° 0 mm 3 mps 762 mmHg 98%
    18:00 +14°C° 0 mm 3 mps 762 mmHg 98%
    19:00 +14°C° 0 mm 3 mps 762 mmHg 98%
    20:00 +14°C° 0 mm 3 mps 762 mmHg 98%
    21:00 +14°C° 0.1 mm 4 mps 762 mmHg 98%
    22:00 +14°C° 0.1 mm 4 mps 762 mmHg 98%
    23:00 +14°C° 0.1 mm 4 mps 762 mmHg 98%

    21 October, Sunday

    Time Temperature Precipitation Wind Pressure Humidity
    00:00 +14°C° 0.1 mm 4 mps 762 mmHg 98%
    01:00 +14°C° 0.1 mm 4 mps 761 mmHg 98%
    02:00 +14°C° 0.1 mm 4 mps 761 mmHg 98%
    03:00 +14°C° 0.1 mm 4 mps 761 mmHg 98%
    04:00 +14°C° 0.1 mm 4 mps 762 mmHg 98%
    05:00 +14°C° 0.1 mm 4 mps 762 mmHg 98%
    06:00 +14°C° 0.1 mm 4 mps 762 mmHg 96%
    07:00 +14°C° 0.1 mm 5 mps 763 mmHg 95%
    08:00 +13°C° 0.1 mm 6 mps 763 mmHg 93%
    09:00 +13°C° 0 mm 6 mps 764 mmHg 92%
    10:00 +11°C° 0 mm 6 mps 764 mmHg 90%
    11:00 +10°C° 0 mm 5 mps 765 mmHg 89%
    12:00 +11°C° 0 mm 6 mps 765 mmHg 85%
    13:00 +11°C° 0 mm 6 mps 765 mmHg 81%
    14:00 +12°C° 0 mm 7 mps 766 mmHg 78%
    15:00 +10°C° 0 mm 7 mps 766 mmHg 81%
    16:00 +9°C° 0 mm 7 mps 767 mmHg 84%
    17:00 +8°C° 0 mm 7 mps 768 mmHg 87%
    18:00 +8°C° 0 mm 6 mps 768 mmHg 87%
    19:00 +7°C° 0 mm 6 mps 769 mmHg 88%
    20:00 +7°C° 0 mm 6 mps 770 mmHg 88%
    21:00 +5°C° 0 mm 6 mps 770 mmHg 88%
    22:00 +5°C° 0 mm 5 mps 770 mmHg 88%
    23:00 +5°C° 0 mm 5 mps 771 mmHg 88%

    22 October, Monday

    Time Temperature Precipitation Wind Pressure Humidity
    00:00 +5°C° 0 mm 5 mps 771 mmHg 88%
    01:00 +3°C° 0 mm 5 mps 771 mmHg 87%
    02:00 +3°C° 0 mm 5 mps 772 mmHg 87%
    03:00 +4°C° 0 mm 4 mps 772 mmHg 87%
    04:00 +4°C° 0 mm 4 mps 772 mmHg 87%
    05:00 +4°C° 0 mm 4 mps 772 mmHg 87%
    06:00 +4°C° 0 mm 4 mps 772 mmHg 84%
    07:00 +5°C° 0 mm 4 mps 773 mmHg 81%
    08:00 +6°C° 0 mm 4 mps 773 mmHg 79%
    09:00 +7°C° 0 mm 4 mps 773 mmHg 75%
    10:00 +10°C° 0 mm 4 mps 774 mmHg 72%
    11:00 +10°C° 0 mm 5 mps 774 mmHg 68%
    12:00 +10°C° 0 mm 5 mps 774 mmHg 69%
    13:00 +11°C° 0 mm 4 mps 773 mmHg 69%
    14:00 +11°C° 0 mm 4 mps 773 mmHg 70%
    15:00 +10°C° 0 mm 4 mps 773 mmHg 75%
    16:00 +8°C° 0 mm 4 mps 773 mmHg 81%
    17:00 +7°C° 0 mm 4 mps 773 mmHg 86%
    18:00 +6°C° 0 mm 4 mps 774 mmHg 87%
    19:00 +6°C° 0 mm 4 mps 774 mmHg 88%
    20:00 +5°C° 0 mm 4 mps 774 mmHg 90%
    21:00 +5°C° 0 mm 4 mps 774 mmHg 90%
    22:00 +5°C° 0 mm 4 mps 774 mmHg 91%
    23:00 +5°C° 0 mm 3 mps 773 mmHg 92%
    Show more